Laredo, TX

3:36 PM CDT on April 25, 2017 (GMT -0500)
Laredo International

Weather History for KLRD - April, 2013

Change the Weather History Date:

Sunday, April 7, 2013

  Actual Average Record
Temperature  
Mean Temperature 78 °F 74 °F  
Max Temperature 92 °F 86 °F 103 °F (1907)
Min Temperature 64 °F 62 °F 38 °F (2007)
Degree Days  
Heating Degree Days 0 1  
Month to date heating degree days 0 7  
Since 1 July heating degree days 513 920  
Cooling Degree Days 13 10  
Month to date cooling degree days 56 65  
Year to date cooling degree days 425 323  
Growing Degree Days 27 (Base 50)    
Moisture  
Dew Point 61 °F    
Average Humidity 61    
Maximum Humidity 90    
Minimum Humidity 34    
Precipitation  
Precipitation 0.00 in 0.04 in 1.12 in (1912)
Month to date precipitation 0.01 0.24  
Year to date precipitation 0.76 3.20  
Sea Level Pressure  
Sea Level Pressure 29.79 in    
Wind  
Wind Speed 14 mph (SSE)    
Max Wind Speed 24 mph    
Max Gust Speed 29 mph    
Visibility 10 miles    
Events      
T = Trace of Precipitation, MM = Missing Value Source: NWS Daily Summary

Daily Weather History Graph

Daily Weather History Graph

Search for Another Location

Airport or City:

Trip Planner

Search our weather history database for the weather conditions in past years. The results will help you decide how hot, cold, wet, or windy it might be!

Date:

Astronomy

Apr. 07, 2013 Rise Set
Actual Time 7:21 AM CDT 7:58 PM CDT
Civil Twilight 6:57 AM CDT 8:22 PM CDT
Nautical Twilight 6:30 AM CDT 8:50 PM CDT
Astronomical Twilight 6:01 AM CDT 9:18 PM CDT
Moon 5:26 AM CDT (4/7) 5:42 PM CDT (4/7)
Length of Visible Light 13h 24m
Length of Day
12h 37m
Waning Crescent, 8% of the Moon is Illuminated
Apr 7
Waning Crescent
Apr 10
New
Apr 18
First Quarter
Apr 25
Full
May 2
Last Quarter

Hourly Weather History & Observations

Time (CDT) Temp. Heat Index Dew Point Humidity Pressure Visibility Wind Dir Wind Speed Gust Speed Precip Events Conditions
12:56 AM 69.8 °F - 60.8 °F 73% 29.90 in 10.0 mi SE 15.0 mph - N/A   Clear
1:56 AM 68.0 °F - 59.0 °F 73% 29.86 in 10.0 mi SSE 12.7 mph - N/A   Clear
2:56 AM 66.9 °F - 59.9 °F 78% 29.83 in 10.0 mi SSE 13.8 mph - N/A   Clear
3:56 AM 66.2 °F - 60.8 °F 83% 29.85 in 10.0 mi SSE 12.7 mph - N/A   Clear
4:56 AM 64.9 °F - 59.9 °F 84% 29.81 in 10.0 mi SSE 9.2 mph - N/A   Clear
5:56 AM 64.9 °F - 59.9 °F 84% 29.81 in 10.0 mi SSE 9.2 mph - N/A   Clear
6:56 AM 64.4 °F - 60.8 °F 88% 29.86 in 10.0 mi SE 8.1 mph - N/A   Clear
7:56 AM 63.9 °F - 61.0 °F 90% 29.84 in 10.0 mi SE 8.1 mph - N/A   Clear
8:56 AM 68.9 °F - 61.0 °F 76% 29.86 in 10.0 mi SSE 13.8 mph - N/A   Clear
9:56 AM 72.9 °F - 61.9 °F 68% 29.86 in 10.0 mi SSE 13.8 mph - N/A   Clear
10:56 AM 77.0 °F - 61.9 °F 59% 29.86 in 10.0 mi SSE 12.7 mph - N/A   Clear
11:56 AM 79.9 °F - 61.9 °F 54% 29.86 in 10.0 mi South 11.5 mph - N/A   Unknown
12:56 PM 83.8 °F 84.1 °F 61.0 °F 46% 29.83 in 10.0 mi SSE 9.2 mph 18.4 mph N/A   Clear
1:56 PM 88.0 °F 87.9 °F 61.0 °F 40% 29.79 in 10.0 mi SE 12.7 mph 21.9 mph N/A   Clear
2:56 PM 90.0 °F 90.0 °F 61.0 °F 38% 29.75 in 10.0 mi SE 16.1 mph - N/A   Clear
3:56 PM 91.9 °F 91.5 °F 59.9 °F 34% 29.72 in 10.0 mi SE 13.8 mph - N/A   Clear
4:56 PM 90.9 °F 90.3 °F 59.9 °F 35% 29.70 in 10.0 mi SSE 15.0 mph 20.7 mph N/A   Clear
5:56 PM 90.0 °F 89.4 °F 59.9 °F 36% 29.68 in 10.0 mi SE 17.3 mph - N/A   Clear
6:56 PM 90.0 °F 90.0 °F 61.0 °F 38% 29.69 in 10.0 mi SE 19.6 mph - N/A   Clear
7:56 PM 86.0 °F 86.1 °F 61.0 °F 43% 29.71 in 10.0 mi SE 16.1 mph - N/A   Clear
8:56 PM 82.9 °F 83.7 °F 61.9 °F 49% 29.73 in 10.0 mi SE 19.6 mph - N/A   Unknown
9:56 PM 79.9 °F - 63.0 °F 56% 29.75 in 10.0 mi SSE 23.0 mph 28.8 mph N/A   Clear
10:56 PM 75.9 °F - 61.9 °F 62% 29.76 in 10.0 mi SSE 20.7 mph - N/A   Clear
11:56 PM 73.9 °F - 61.9 °F 66% 29.76 in 10.0 mi SSE 19.6 mph 27.6 mph N/A   Clear